Frankfort, MI

1:32 AM EDT on April 27, 2017 (GMT -0400)
Frankfort

Weather History for KFKS - October, 2014

Change the Weather History Date:

Saturday, October 25, 2014

  Actual Average (KMBL) Record (KMBL)
Temperature  
Mean Temperature 55 °F -  
Max Temperature 61 °F 56 °F 75 °F (1963)
Min Temperature 49 °F 40 °F 22 °F (1992)
Degree Days  
Heating Degree Days 10    
Growing Degree Days 5 (Base 50)    
Moisture  
Dew Point 44 °F    
Average Humidity 67    
Maximum Humidity 89    
Minimum Humidity 40    
Precipitation  
Precipitation 0.00 in - - ()
Sea Level Pressure  
Sea Level Pressure 29.80 in    
Wind  
Wind Speed 7 mph (West)    
Max Wind Speed 14 mph    
Max Gust Speed 25 mph    
Visibility 8 miles    
Events      
Averages and records for this station are not official NWS values.
T = Trace of Precipitation, MM = Missing Value Source: NWS Daily Summary

Daily Weather History Graph

Daily Weather History Graph

Search for Another Location

Airport or City:

Trip Planner

Search our weather history database for the weather conditions in past years. The results will help you decide how hot, cold, wet, or windy it might be!

Date:

Astronomy

Oct. 25, 2014 Rise Set
Actual Time 8:13 AM EDT 6:43 PM EDT
Civil Twilight 7:43 AM EDT 7:13 PM EDT
Nautical Twilight 7:09 AM EDT 7:47 PM EDT
Astronomical Twilight 6:35 AM EDT 8:21 PM EDT
Moon 9:54 AM EDT (10/25) 8:02 PM EDT (10/25)
Length of Visible Light 11h 30m
Length of Day
10h 30m
Waxing Crescent, 3% of the Moon is Illuminated
Oct 25
Waxing Crescent
Oct 30
First Quarter
Nov 6
Full
Nov 14
Last Quarter
Nov 22
New

Hourly Weather History & Observations

Time (EDT) Temp. Dew Point Humidity Pressure Visibility Wind Dir Wind Speed Gust Speed Precip Events Conditions
12:15 AM 49.5 °F 46.4 °F 89% 29.87 in 7.0 mi Calm Calm - N/A   Scattered Clouds
12:35 AM 50.4 °F 46.8 °F 87% 29.86 in 7.0 mi South 4.6 mph - N/A   Mostly Cloudy
12:55 AM 51.6 °F 47.7 °F 86% 29.85 in 7.0 mi South 4.6 mph - N/A   Overcast
1:15 AM 52.7 °F 48.2 °F 85% 29.84 in 7.0 mi SSW 10.4 mph 16.1 mph N/A   Overcast
1:35 AM 52.7 °F 48.2 °F 85% 29.82 in 7.0 mi South 9.2 mph - N/A   Overcast
1:55 AM 54.0 °F 48.6 °F 82% 29.82 in 7.0 mi SW 9.2 mph - N/A   Overcast
2:15 AM 54.7 °F 48.6 °F 80% 29.81 in 7.0 mi SSW 8.1 mph - N/A   Overcast
2:36 AM 55.0 °F 48.6 °F 79% 29.80 in 7.0 mi SSW 11.5 mph 19.6 mph N/A   Overcast
2:56 AM 55.4 °F 48.6 °F 78% 29.79 in 7.0 mi SW 9.2 mph 17.3 mph N/A   Overcast
3:16 AM 55.4 °F 48.4 °F 77% 29.81 in 7.0 mi SW 8.1 mph 17.3 mph N/A   Overcast
3:36 AM 54.5 °F 48.2 °F 79% 29.82 in 7.0 mi SW 9.2 mph 16.1 mph N/A   Overcast
3:51 AM 54.1 °F 48.6 °F 81% 29.80 in 7.0 mi SSW 8.1 mph - N/A   Overcast
4:11 AM 54.3 °F 49.3 °F 83% 29.79 in 5.0 mi SW 8.1 mph - N/A   Haze
4:31 AM 54.3 °F 49.8 °F 85% 29.78 in 5.0 mi WSW 6.9 mph - N/A   Overcast
4:51 AM 54.5 °F 50.2 °F 85% 29.78 in 5.0 mi WSW 5.8 mph - N/A   Haze
5:11 AM 54.5 °F 50.2 °F 85% 29.79 in 5.0 mi WSW 6.9 mph - N/A   Overcast
5:31 AM 54.5 °F 50.4 °F 86% 29.78 in 4.0 mi WSW 6.9 mph - N/A   Overcast
5:52 AM 53.6 °F 50.0 °F 88% 29.78 in 4.0 mi WSW 5.8 mph - N/A   Scattered Clouds
6:12 AM 53.6 °F 50.0 °F 88% 29.77 in 4.0 mi WSW 5.8 mph - N/A   Clear
6:32 AM 54.1 °F 50.7 °F 88% 29.77 in 4.0 mi WSW 6.9 mph - N/A   Mostly Cloudy
6:52 AM 54.9 °F 51.1 °F 87% 29.78 in 5.0 mi WSW 5.8 mph - N/A   Overcast
7:12 AM 54.5 °F 50.9 °F 88% 29.78 in 5.0 mi SW 8.1 mph - N/A   Overcast
7:32 AM 54.3 °F 50.9 °F 88% 29.78 in 4.0 mi WSW 5.8 mph - N/A   Overcast
7:52 AM 54.0 °F 50.9 °F 89% 29.77 in 4.0 mi WSW 6.9 mph - N/A   Overcast
8:12 AM 54.1 °F 50.9 °F 89% 29.77 in 4.0 mi WSW 4.6 mph - N/A   Overcast
8:32 AM 54.1 °F 50.9 °F 89% 29.78 in 2.5 mi West 5.8 mph - N/A   Overcast
8:53 AM 54.1 °F 51.1 °F 89% 29.79 in 2.5 mi West 5.8 mph - N/A   Overcast
9:13 AM 54.1 °F 50.9 °F 89% 29.79 in 3.0 mi WNW 6.9 mph - N/A   Scattered Clouds
9:33 AM 55.4 °F 50.7 °F 84% 29.79 in 5.0 mi WNW 8.1 mph - N/A   Clear
9:53 AM 56.8 °F 50.4 °F 79% 29.78 in 7.0 mi WNW 10.4 mph 17.3 mph N/A   Clear
10:13 AM 57.2 °F 50.2 °F 77% 29.79 in 7.0 mi WNW 10.4 mph 18.4 mph N/A   Clear
10:33 AM 57.4 °F 49.8 °F 76% 29.79 in 10.0 mi WNW 11.5 mph - N/A   Clear
10:53 AM 58.3 °F 49.5 °F 72% 29.79 in 10.0 mi WNW 11.5 mph 16.1 mph N/A   Clear
11:13 AM 59.2 °F 48.4 °F 67% 29.79 in 10.0 mi WNW 10.4 mph 21.9 mph N/A   Clear
11:33 AM 59.7 °F 47.7 °F 64% 29.79 in 10.0 mi WNW 8.1 mph 16.1 mph N/A   Clear
11:54 AM 59.0 °F 47.5 °F 66% 29.78 in 10.0 mi West 13.8 mph 19.6 mph N/A   Clear
12:14 PM 58.8 °F 46.6 °F 64% 29.78 in 10.0 mi West 12.7 mph 25.3 mph N/A   Clear
12:34 PM 59.5 °F 44.8 °F 58% 29.79 in 10.0 mi West 10.4 mph 19.6 mph N/A   Clear
12:54 PM 60.4 °F 42.8 °F 52% 29.79 in 10.0 mi West 12.7 mph 20.7 mph N/A   Clear
1:14 PM 60.1 °F 43.3 °F 54% 29.78 in 10.0 mi West 9.2 mph 16.1 mph N/A   Clear
1:34 PM 59.2 °F 44.1 °F 57% 29.78 in 10.0 mi West 9.2 mph 17.3 mph N/A   Clear
1:54 PM 59.2 °F 44.6 °F 58% 29.77 in 10.0 mi West 11.5 mph - N/A   Clear
2:14 PM 59.5 °F 44.8 °F 58% 29.78 in 10.0 mi West 8.1 mph - N/A   Clear
2:34 PM 59.2 °F 45.1 °F 60% 29.77 in 10.0 mi West 6.9 mph 16.1 mph N/A   Clear
2:55 PM 59.7 °F 44.4 °F 57% 29.76 in 10.0 mi West 9.2 mph - N/A   Clear
3:15 PM 59.9 °F 43.3 °F 54% 29.77 in 10.0 mi WSW 10.4 mph - N/A   Clear
3:35 PM 61.2 °F 41.4 °F 48% 29.77 in 10.0 mi West 8.1 mph 16.1 mph N/A   Clear
3:55 PM 61.5 °F 41.0 °F 47% 29.77 in 10.0 mi West 6.9 mph - N/A   Clear
4:15 PM 61.0 °F 40.1 °F 46% 29.78 in 10.0 mi West 8.1 mph - N/A   Clear
4:35 PM 59.9 °F 42.3 °F 52% 29.78 in 10.0 mi West 6.9 mph - N/A   Clear
4:55 PM 60.8 °F 38.8 °F 44% 29.78 in 10.0 mi WNW 11.5 mph - N/A   Clear
5:15 PM 60.8 °F 38.8 °F 44% 29.77 in 10.0 mi West 6.9 mph - N/A   Clear
5:35 PM 58.6 °F 41.9 °F 54% 29.78 in 10.0 mi West 3.5 mph - N/A   Clear
5:55 PM 57.9 °F 41.9 °F 55% 29.77 in 10.0 mi WNW 6.9 mph - N/A   Clear
6:16 PM 56.7 °F 41.7 °F 57% 29.77 in 10.0 mi WNW 8.1 mph - N/A   Clear
6:36 PM 55.4 °F 41.0 °F 58% 29.77 in 10.0 mi WNW 10.4 mph - N/A   Clear
6:56 PM 55.4 °F 39.9 °F 56% 29.78 in 10.0 mi WNW 9.2 mph - N/A   Clear
7:16 PM 57.0 °F 34.9 °F 43% 29.78 in 10.0 mi WNW 10.4 mph - N/A   Clear
7:36 PM 56.5 °F 36.5 °F 47% 29.78 in 10.0 mi WNW 11.5 mph 17.3 mph N/A   Clear
7:56 PM 55.9 °F 36.3 °F 48% 29.80 in 10.0 mi West 8.1 mph - N/A   Clear
8:11 PM 54.7 °F 39.4 °F 56% 29.80 in 10.0 mi NW 6.9 mph - N/A   Clear
8:31 PM 55.2 °F 36.9 °F 50% 29.80 in 10.0 mi NW 10.4 mph 16.1 mph N/A   Clear
8:51 PM 56.3 °F 35.2 °F 45% 29.82 in 10.0 mi NNW 10.4 mph - N/A   Clear
9:11 PM 55.4 °F 36.1 °F 48% 29.82 in 10.0 mi NNW 9.2 mph 17.3 mph N/A   Clear
9:32 PM 54.3 °F 36.5 °F 51% 29.83 in 10.0 mi NNW 8.1 mph - N/A   Clear
9:52 PM 54.0 °F 35.8 °F 50% 29.84 in 10.0 mi NNW 8.1 mph - N/A   Clear
10:12 PM 54.5 °F 34.0 °F 46% 29.84 in 10.0 mi NNW 11.5 mph 16.1 mph N/A   Clear
10:32 PM 55.2 °F 31.5 °F 40% 29.84 in 10.0 mi NW 11.5 mph 19.6 mph N/A   Clear
10:52 PM 55.0 °F 30.9 °F 40% 29.85 in 10.0 mi NW 11.5 mph 21.9 mph N/A   Clear
11:12 PM 54.3 °F 32.0 °F 43% 29.85 in 10.0 mi NW 12.7 mph 18.4 mph N/A   Clear
11:32 PM 53.8 °F 32.5 °F 45% 29.85 in 10.0 mi NW 11.5 mph 18.4 mph N/A   Clear
11:52 PM 53.8 °F 32.2 °F 44% 29.85 in 10.0 mi NW 13.8 mph 19.6 mph N/A   Clear